SZN009 GMMN-GOBD

Flight info

Callsign SZN009
Flight time 3h 14m
Altitude 35000
Route NIKZO UR975 DIDAN/N0468F340 UR975 SAKLI DCT AMROD AMROD1V
Aircraft B738/M-SDE2E3FGHIRWXY/LB1

Departure

Time 2026-05-07 18:16
Airport Mohammed V International Airport (GMMN)

Arrival

Time 2026-05-07 21:30
Airport Blaise Diagne International Airport (GOBD)
Time Latitude Longitude Altitude Speed Heading
2026-05-07 17:26 33.37415 -7.58441 652 ft 0 kts 119°
2026-05-07 17:28 33.37415 -7.58442 652 ft 0 kts 119°
2026-05-07 17:47 33.37416 -7.58442 652 ft 0 kts 119°
2026-05-07 17:56 33.37415 -7.58441 653 ft 1 kts 119°
2026-05-07 17:56 33.37399 -7.58407 652 ft 0 kts 119°
2026-05-07 17:57 33.37398 -7.58405 652 ft 1 kts 119°
2026-05-07 17:57 33.37389 -7.58385 652 ft 6 kts 124°
2026-05-07 17:57 33.37296 -7.58334 652 ft 18 kts 163°
2026-05-07 17:57 33.37153 -7.58286 652 ft 23 kts 165°
2026-05-07 17:58 33.36993 -7.58235 652 ft 17 kts 165°
2026-05-07 17:58 33.36925 -7.58307 653 ft 14 kts 261°
2026-05-07 17:58 33.36901 -7.58415 652 ft 13 kts 255°
2026-05-07 17:58 33.36860 -7.58468 652 ft 6 kts 186°
2026-05-07 17:59 33.36811 -7.58451 653 ft 11 kts 163°
2026-05-07 17:59 33.36700 -7.58413 652 ft 22 kts 164°
2026-05-07 17:59 33.36520 -7.58351 652 ft 32 kts 164°
2026-05-07 17:59 33.36324 -7.58283 651 ft 27 kts 164°
2026-05-07 18:00 33.36158 -7.58226 654 ft 9 kts 163°
2026-05-07 18:00 33.36082 -7.58199 651 ft 20 kts 164°
2026-05-07 18:00 33.35891 -7.58135 651 ft 24 kts 164°
2026-05-07 18:00 33.35744 -7.58085 654 ft 20 kts 163°
2026-05-07 18:01 33.35634 -7.58047 651 ft 13 kts 164°
2026-05-07 18:01 33.35549 -7.58018 653 ft 13 kts 164°
2026-05-07 18:01 33.35465 -7.57990 653 ft 12 kts 164°
2026-05-07 18:01 33.35384 -7.57962 652 ft 12 kts 164°
2026-05-07 18:02 33.35347 -7.57949 653 ft 0 kts 165°
2026-05-07 18:05 33.35333 -7.57946 653 ft 5 kts 170°
2026-05-07 18:05 33.35291 -7.57951 652 ft 7 kts 203°
2026-05-07 18:05 33.35288 -7.57953 652 ft 0 kts 208°
2026-05-07 18:09 33.35274 -7.57965 653 ft 6 kts 222°
2026-05-07 18:10 33.35253 -7.58008 652 ft 6 kts 252°
2026-05-07 18:10 33.35252 -7.58012 654 ft 0 kts 252°
2026-05-07 18:11 33.35251 -7.58020 653 ft 3 kts 253°
2026-05-07 18:12 33.35239 -7.58065 654 ft 7 kts 253°
2026-05-07 18:12 33.35237 -7.58077 653 ft 0 kts 255°
2026-05-07 18:14 33.35235 -7.58086 652 ft 4 kts 255°
2026-05-07 18:14 33.35221 -7.58144 653 ft 10 kts 254°
2026-05-07 18:14 33.35214 -7.58238 656 ft 12 kts 296°
2026-05-07 18:14 33.35250 -7.58272 654 ft 0 kts 345°
2026-05-07 18:15 33.35283 -7.58283 652 ft 28 kts 345°
2026-05-07 18:16 33.35739 -7.58439 644 ft 105 kts 344°
2026-05-07 18:16 33.36652 -7.58745 685 ft 163 kts 344°
2026-05-07 18:16 33.37742 -7.59147 1526 ft 160 kts 343°
2026-05-07 18:16 33.38811 -7.59594 2390 ft 167 kts 336°
2026-05-07 18:17 33.39854 -7.60387 2818 ft 193 kts 321°
2026-05-07 18:17 33.40765 -7.61690 3039 ft 218 kts 301°
2026-05-07 18:17 33.41219 -7.63454 3531 ft 228 kts 276°
2026-05-07 18:17 33.41004 -7.65358 4009 ft 237 kts 253°
2026-05-07 18:18 33.40389 -7.67217 4535 ft 242 kts 248°
2026-05-07 18:18 33.39723 -7.69058 4925 ft 244 kts 246°
2026-05-07 18:18 33.39053 -7.70942 4914 ft 247 kts 248°
2026-05-07 18:18 33.38396 -7.72852 4947 ft 249 kts 248°
2026-05-07 18:19 33.37753 -7.74778 5551 ft 250 kts 248°
2026-05-07 18:19 33.37128 -7.76680 6556 ft 241 kts 247°
2026-05-07 18:19 33.36471 -7.78528 7269 ft 244 kts 236°
2026-05-07 18:19 33.35194 -7.79881 7658 ft 257 kts 207°
2026-05-07 18:20 33.33542 -7.80842 8317 ft 263 kts 206°
2026-05-07 18:20 33.31867 -7.81784 9024 ft 267 kts 206°
2026-05-07 18:20 33.30206 -7.82721 9878 ft 266 kts 206°
2026-05-07 18:20 33.28524 -7.83678 10466 ft 274 kts 207°
2026-05-07 18:21 33.26735 -7.84706 10623 ft 297 kts 207°
2026-05-07 18:21 33.24804 -7.85823 10790 ft 318 kts 207°
2026-05-07 18:21 33.22746 -7.87019 10940 ft 338 kts 207°
2026-05-07 18:21 33.20573 -7.88285 11075 ft 357 kts 207°
2026-05-07 18:22 33.18291 -7.89616 11351 ft 369 kts 207°
2026-05-07 18:22 33.16757 -7.90511 11691 ft 371 kts 207°
2026-05-07 18:22 33.13644 -7.92329 12477 ft 373 kts 207°
2026-05-07 18:22 33.11302 -7.93697 13028 ft 376 kts 207°
2026-05-07 18:23 33.08968 -7.95061 13531 ft 380 kts 207°
2026-05-07 18:23 33.06558 -7.96468 14022 ft 382 kts 207°
2026-05-07 18:23 33.04159 -7.97868 14487 ft 384 kts 207°
2026-05-07 18:23 33.01780 -7.99257 14880 ft 385 kts 207°
2026-05-07 18:24 32.99361 -8.00667 14921 ft 387 kts 207°
2026-05-07 18:24 32.96940 -8.02078 14939 ft 389 kts 207°
2026-05-07 18:24 32.94491 -8.03504 15236 ft 391 kts 208°
2026-05-07 18:24 32.92042 -8.04929 15608 ft 391 kts 208°
2026-05-07 18:25 32.89599 -8.06350 15936 ft 392 kts 208°
2026-05-07 18:25 32.87141 -8.07779 16210 ft 394 kts 208°
2026-05-07 18:25 32.84666 -8.09217 16482 ft 396 kts 208°
2026-05-07 18:25 32.82189 -8.10656 16768 ft 397 kts 208°
2026-05-07 18:26 32.79704 -8.12097 17044 ft 398 kts 208°
2026-05-07 18:26 32.77207 -8.13546 17299 ft 400 kts 208°
2026-05-07 18:26 32.74734 -8.14979 17531 ft 401 kts 208°
2026-05-07 18:26 32.72207 -8.16407 17779 ft 403 kts 206°
2026-05-07 18:27 32.69606 -8.17674 18011 ft 405 kts 205°
2026-05-07 18:27 32.66975 -8.18895 18228 ft 407 kts 205°
2026-05-07 18:27 32.64328 -8.20106 18420 ft 408 kts 204°
2026-05-07 18:27 32.62538 -8.20924 18559 ft 408 kts 204°
2026-05-07 18:28 32.59027 -8.22536 18822 ft 409 kts 205°
2026-05-07 18:28 32.56371 -8.23763 19016 ft 410 kts 205°
2026-05-07 18:28 32.53709 -8.24997 19195 ft 411 kts 205°
2026-05-07 18:28 32.51050 -8.26231 19376 ft 411 kts 205°
2026-05-07 18:29 32.48387 -8.27468 19534 ft 412 kts 205°
2026-05-07 18:29 32.45716 -8.28709 19706 ft 413 kts 205°
2026-05-07 18:29 32.43043 -8.29950 19860 ft 414 kts 205°
2026-05-07 18:29 32.40345 -8.31203 20168 ft 416 kts 205°
2026-05-07 18:30 32.37652 -8.32451 20569 ft 416 kts 205°
2026-05-07 18:30 32.35866 -8.33278 20799 ft 417 kts 205°
2026-05-07 18:30 32.33157 -8.34532 21141 ft 418 kts 205°
2026-05-07 18:30 32.30438 -8.35791 21458 ft 420 kts 205°
2026-05-07 18:31 32.27711 -8.37052 21763 ft 422 kts 205°
2026-05-07 18:31 32.24966 -8.38321 22067 ft 424 kts 205°
2026-05-07 18:31 32.22212 -8.39593 22356 ft 425 kts 205°
2026-05-07 18:31 32.19453 -8.40866 22670 ft 426 kts 205°
2026-05-07 18:32 32.16687 -8.42142 22955 ft 428 kts 205°
2026-05-07 18:32 32.13909 -8.43423 23234 ft 429 kts 205°
2026-05-07 18:32 32.11120 -8.44708 23487 ft 431 kts 205°
2026-05-07 18:32 32.08373 -8.46036 23711 ft 431 kts 208°
2026-05-07 18:33 32.05662 -8.47555 23922 ft 431 kts 210°
2026-05-07 18:33 32.02960 -8.49109 24138 ft 433 kts 210°
2026-05-07 18:33 32.00255 -8.50676 24360 ft 434 kts 210°
2026-05-07 18:33 31.97531 -8.52248 24567 ft 435 kts 210°
2026-05-07 18:34 31.94804 -8.53816 24779 ft 437 kts 210°
2026-05-07 18:34 31.92061 -8.55384 24981 ft 438 kts 210°
2026-05-07 18:34 31.89311 -8.56952 25183 ft 439 kts 210°
2026-05-07 18:34 31.86550 -8.58523 25375 ft 441 kts 210°
2026-05-07 18:35 31.83819 -8.60074 25591 ft 441 kts 210°
2026-05-07 18:35 31.81054 -8.61643 25855 ft 441 kts 210°
2026-05-07 18:35 31.78300 -8.63205 26170 ft 440 kts 210°
2026-05-07 18:35 31.75544 -8.64767 26488 ft 438 kts 210°
2026-05-07 18:36 31.72800 -8.66322 26800 ft 437 kts 210°
2026-05-07 18:36 31.70058 -8.67875 27086 ft 437 kts 210°
2026-05-07 18:36 31.67322 -8.69424 27376 ft 436 kts 210°
2026-05-07 18:36 31.64593 -8.70968 27680 ft 435 kts 210°
2026-05-07 18:37 31.61863 -8.72512 27986 ft 435 kts 210°
2026-05-07 18:37 31.59143 -8.74049 28329 ft 433 kts 210°
2026-05-07 18:37 31.56428 -8.75582 28679 ft 432 kts 210°
2026-05-07 18:37 31.53713 -8.77114 28972 ft 432 kts 210°
2026-05-07 18:38 31.50996 -8.78625 29251 ft 433 kts 209°
2026-05-07 18:38 31.48264 -8.80028 29574 ft 433 kts 208°
2026-05-07 18:38 31.45490 -8.81392 29919 ft 432 kts 207°
2026-05-07 18:38 31.42720 -8.82739 30213 ft 431 kts 207°
2026-05-07 18:39 31.39951 -8.84090 30457 ft 431 kts 207°
2026-05-07 18:39 31.37189 -8.85449 30738 ft 430 kts 208°
2026-05-07 18:39 31.34431 -8.86813 31005 ft 429 kts 208°
2026-05-07 18:39 31.31682 -8.88177 31281 ft 428 kts 208°
2026-05-07 18:40 31.28943 -8.89540 31530 ft 428 kts 208°
2026-05-07 18:40 31.26201 -8.90904 31777 ft 428 kts 208°
2026-05-07 18:40 31.23466 -8.92264 32038 ft 427 kts 208°
2026-05-07 18:40 31.20733 -8.93622 32292 ft 426 kts 208°
2026-05-07 18:41 31.18006 -8.94975 32572 ft 425 kts 208°
2026-05-07 18:41 31.15289 -8.96323 32815 ft 425 kts 208°
2026-05-07 18:41 31.12565 -8.97674 33021 ft 425 kts 208°
2026-05-07 18:41 31.09848 -8.99021 33270 ft 424 kts 208°
2026-05-07 18:42 31.07135 -9.00364 33519 ft 423 kts 208°
2026-05-07 18:42 31.04421 -9.01707 33764 ft 422 kts 208°
2026-05-07 18:42 31.01714 -9.03045 33990 ft 422 kts 208°
2026-05-07 18:42 30.99010 -9.04386 34112 ft 422 kts 208°
2026-05-07 18:43 30.96302 -9.05738 34265 ft 423 kts 209°
2026-05-07 18:43 30.93606 -9.07086 34485 ft 421 kts 209°
2026-05-07 18:43 30.90911 -9.08433 34663 ft 421 kts 209°
2026-05-07 18:44 30.85565 -9.11103 34884 ft 421 kts 209°
2026-05-07 18:44 30.80168 -9.13792 34908 ft 422 kts 209°
2026-05-07 18:45 30.74777 -9.16474 34918 ft 422 kts 209°
2026-05-07 18:45 30.69361 -9.19170 34910 ft 423 kts 209°
2026-05-07 18:46 30.63974 -9.21938 34915 ft 423 kts 210°
2026-05-07 18:46 30.58595 -9.24728 34900 ft 424 kts 210°
2026-05-07 18:47 30.53211 -9.27508 34892 ft 423 kts 210°
2026-05-07 18:47 30.47827 -9.30278 34889 ft 423 kts 210°
2026-05-07 18:48 30.42477 -9.33027 34877 ft 423 kts 210°
2026-05-07 18:48 30.37089 -9.35793 34886 ft 423 kts 210°
2026-05-07 18:49 30.31691 -9.38544 34883 ft 424 kts 208°
2026-05-07 18:49 30.26157 -9.41019 34884 ft 427 kts 206°
2026-05-07 18:50 30.20581 -9.43392 34888 ft 427 kts 206°
2026-05-07 18:50 30.15009 -9.45790 34897 ft 427 kts 207°
2026-05-07 18:51 30.09446 -9.48206 34912 ft 427 kts 207°
2026-05-07 18:51 30.03917 -9.50608 34928 ft 427 kts 207°
2026-05-07 18:52 29.98354 -9.53023 34938 ft 427 kts 207°
2026-05-07 18:52 29.92780 -9.55438 34944 ft 428 kts 207°
2026-05-07 18:53 29.87213 -9.57865 34951 ft 428 kts 207°
2026-05-07 18:53 29.81637 -9.60303 34951 ft 428 kts 207°
2026-05-07 18:54 29.76065 -9.62734 34960 ft 428 kts 207°
2026-05-07 18:54 29.70485 -9.65165 34954 ft 429 kts 207°
2026-05-07 18:55 29.64941 -9.67577 34959 ft 429 kts 207°
2026-05-07 18:55 29.59345 -9.70008 34954 ft 430 kts 207°
2026-05-07 18:56 29.53745 -9.72435 34958 ft 430 kts 207°
2026-05-07 18:56 29.48138 -9.74863 34955 ft 431 kts 207°
2026-05-07 18:57 29.42505 -9.77300 34945 ft 432 kts 207°
2026-05-07 18:57 29.36918 -9.79714 34948 ft 432 kts 207°
2026-05-07 18:58 29.31278 -9.82149 34944 ft 433 kts 207°
2026-05-07 18:58 29.25643 -9.84578 34938 ft 433 kts 207°
2026-05-07 18:59 29.19994 -9.87011 34927 ft 433 kts 207°
2026-05-07 18:59 29.14348 -9.89439 34922 ft 434 kts 207°
2026-05-07 19:00 29.08692 -9.91870 34916 ft 434 kts 207°
2026-05-07 19:00 29.03040 -9.94296 34917 ft 434 kts 207°
2026-05-07 19:01 28.97371 -9.96723 34908 ft 435 kts 207°
2026-05-07 19:01 28.91696 -9.99139 34909 ft 435 kts 207°
2026-05-07 19:02 28.86049 -10.01540 34919 ft 436 kts 207°
2026-05-07 19:02 28.80342 -10.03966 34735 ft 440 kts 207°
2026-05-07 19:02 28.77464 -10.05191 34498 ft 441 kts 207°
2026-05-07 19:03 28.74596 -10.06406 34256 ft 438 kts 207°
2026-05-07 19:03 28.71741 -10.07615 34040 ft 436 kts 206°
2026-05-07 19:03 28.68892 -10.08822 33977 ft 437 kts 206°
2026-05-07 19:04 28.63149 -10.11257 33942 ft 440 kts 206°
2026-05-07 19:04 28.57452 -10.13667 33927 ft 439 kts 206°
2026-05-07 19:05 28.51721 -10.16088 33919 ft 438 kts 206°
2026-05-07 19:05 28.46007 -10.18500 33939 ft 437 kts 207°
2026-05-07 19:06 28.40299 -10.20907 33929 ft 437 kts 206°
2026-05-07 19:06 28.31734 -10.24514 33929 ft 438 kts 206°
2026-05-07 19:07 28.26016 -10.26918 33924 ft 439 kts 207°
2026-05-07 19:07 28.20285 -10.29325 33925 ft 440 kts 206°
2026-05-07 19:08 28.14536 -10.31737 33923 ft 441 kts 206°
2026-05-07 19:08 28.08817 -10.34134 33925 ft 442 kts 206°
2026-05-07 19:09 28.03045 -10.36549 33924 ft 443 kts 206°
2026-05-07 19:09 27.98781 -10.38332 33924 ft 443 kts 206°
2026-05-07 19:10 27.92984 -10.40753 33922 ft 444 kts 206°
2026-05-07 19:10 27.87188 -10.43171 33922 ft 444 kts 206°
2026-05-07 19:11 27.81386 -10.45589 33924 ft 444 kts 206°
2026-05-07 19:11 27.75580 -10.48007 33916 ft 445 kts 206°
2026-05-07 19:12 27.69768 -10.50424 33914 ft 445 kts 206°
2026-05-07 19:12 27.63963 -10.52853 33916 ft 444 kts 207°
2026-05-07 19:13 27.58223 -10.55327 33917 ft 444 kts 207°
2026-05-07 19:13 27.52449 -10.57827 33915 ft 444 kts 207°
2026-05-07 19:14 27.46679 -10.60316 33908 ft 444 kts 207°
2026-05-07 19:14 27.40895 -10.62803 33911 ft 444 kts 207°
2026-05-07 19:15 27.35117 -10.65281 33908 ft 445 kts 207°
2026-05-07 19:15 27.29328 -10.67762 33909 ft 444 kts 207°
2026-05-07 19:16 27.24524 -10.69819 33908 ft 444 kts 207°
2026-05-07 19:16 27.18744 -10.72291 33901 ft 445 kts 207°
2026-05-07 19:17 27.12019 -10.75165 33908 ft 445 kts 207°
2026-05-07 19:17 27.06230 -10.77635 33909 ft 445 kts 207°
2026-05-07 19:18 27.01382 -10.79701 33912 ft 445 kts 207°
2026-05-07 19:18 26.95633 -10.82149 33910 ft 445 kts 207°
2026-05-07 19:19 26.89841 -10.84613 33909 ft 446 kts 207°
2026-05-07 19:19 26.84040 -10.87078 33912 ft 446 kts 207°
2026-05-07 19:20 26.78238 -10.89541 33905 ft 446 kts 207°
2026-05-07 19:20 26.72424 -10.92006 33905 ft 446 kts 207°
2026-05-07 19:21 26.66614 -10.94466 33922 ft 446 kts 207°
2026-05-07 19:21 26.60801 -10.96926 33907 ft 447 kts 206°
2026-05-07 19:22 26.54987 -10.99382 33913 ft 447 kts 206°
2026-05-07 19:22 26.49206 -11.01822 33920 ft 447 kts 206°
2026-05-07 19:23 26.43385 -11.04277 33918 ft 447 kts 206°
2026-05-07 19:23 26.37564 -11.06729 33918 ft 447 kts 206°
2026-05-07 19:24 26.31745 -11.09178 33918 ft 447 kts 206°
2026-05-07 19:24 26.25921 -11.11625 33924 ft 447 kts 206°
2026-05-07 19:25 26.20103 -11.14068 33920 ft 447 kts 206°
2026-05-07 19:25 26.14315 -11.16496 33919 ft 447 kts 206°
2026-05-07 19:26 26.08489 -11.18937 33930 ft 447 kts 206°
2026-05-07 19:26 26.02659 -11.21377 33917 ft 448 kts 206°
2026-05-07 19:27 25.96820 -11.23818 33925 ft 448 kts 206°
2026-05-07 19:27 25.90978 -11.26258 33919 ft 448 kts 206°
2026-05-07 19:28 25.85134 -11.28696 33923 ft 449 kts 206°
2026-05-07 19:28 25.79283 -11.31134 33918 ft 449 kts 206°
2026-05-07 19:29 25.73431 -11.33571 33919 ft 449 kts 206°
2026-05-07 19:29 25.67612 -11.35991 33915 ft 449 kts 206°
2026-05-07 19:30 25.61756 -11.38424 33915 ft 450 kts 206°
2026-05-07 19:30 25.55887 -11.40859 33910 ft 450 kts 206°
2026-05-07 19:31 25.50025 -11.43290 33909 ft 450 kts 206°
2026-05-07 19:31 25.44156 -11.45720 33909 ft 450 kts 206°
2026-05-07 19:32 25.38276 -11.48153 33906 ft 450 kts 206°
2026-05-07 19:32 25.32408 -11.50579 33899 ft 451 kts 206°
2026-05-07 19:33 25.26527 -11.53008 33899 ft 451 kts 206°
2026-05-07 19:33 25.20683 -11.55411 33898 ft 451 kts 205°
2026-05-07 19:34 25.14747 -11.57687 33898 ft 452 kts 204°
2026-05-07 19:34 25.08789 -11.59903 33898 ft 452 kts 204°
2026-05-07 19:35 25.02842 -11.62125 33895 ft 451 kts 204°
2026-05-07 19:35 24.96897 -11.64360 33891 ft 451 kts 204°
2026-05-07 19:36 24.90957 -11.66598 33899 ft 451 kts 204°
2026-05-07 19:36 24.85014 -11.68835 33890 ft 451 kts 204°
2026-05-07 19:37 24.79067 -11.71071 33891 ft 451 kts 204°
2026-05-07 19:37 24.73131 -11.73300 33890 ft 451 kts 204°
2026-05-07 19:38 24.67223 -11.75517 33880 ft 451 kts 204°
2026-05-07 19:38 24.61276 -11.77745 33888 ft 451 kts 204°
2026-05-07 19:39 24.55328 -11.79972 33883 ft 452 kts 204°
2026-05-07 19:39 24.49365 -11.82202 33882 ft 452 kts 204°
2026-05-07 19:40 24.43413 -11.84426 33882 ft 452 kts 204°
2026-05-07 19:40 24.37458 -11.86648 33886 ft 452 kts 204°
2026-05-07 19:41 24.31538 -11.88856 33881 ft 452 kts 204°
2026-05-07 19:41 24.25585 -11.91073 33881 ft 452 kts 204°
2026-05-07 19:42 24.19624 -11.93292 33883 ft 452 kts 204°
2026-05-07 19:42 24.13668 -11.95506 33883 ft 452 kts 204°
2026-05-07 19:43 24.07713 -11.97718 33885 ft 452 kts 204°
2026-05-07 19:43 24.01795 -11.99914 33885 ft 452 kts 204°
2026-05-07 19:44 23.95835 -12.02123 33883 ft 451 kts 204°
2026-05-07 19:44 23.89892 -12.04324 33884 ft 451 kts 204°
2026-05-07 19:45 23.83943 -12.06525 33882 ft 451 kts 204°
2026-05-07 19:45 23.78005 -12.08720 33883 ft 451 kts 203°
2026-05-07 19:46 23.72064 -12.10913 33881 ft 450 kts 203°
2026-05-07 19:46 23.66127 -12.13104 33883 ft 450 kts 203°
2026-05-07 19:47 23.60194 -12.15291 33886 ft 450 kts 203°
2026-05-07 19:47 23.54265 -12.17475 33880 ft 450 kts 203°
2026-05-07 19:48 23.48376 -12.19641 33878 ft 450 kts 203°
2026-05-07 19:48 23.42452 -12.21819 33882 ft 450 kts 203°
2026-05-07 19:49 23.36519 -12.24002 33884 ft 450 kts 203°
2026-05-07 19:49 23.30586 -12.26184 33889 ft 450 kts 203°
2026-05-07 19:50 23.24647 -12.28366 33875 ft 450 kts 203°
2026-05-07 19:50 23.18709 -12.30545 33880 ft 450 kts 203°
2026-05-07 19:51 23.12775 -12.32721 33881 ft 450 kts 203°
2026-05-07 19:51 23.06878 -12.34881 33875 ft 450 kts 203°
2026-05-07 19:52 23.00940 -12.37055 33869 ft 450 kts 203°
2026-05-07 19:52 22.95011 -12.39223 33874 ft 449 kts 203°
2026-05-07 19:53 22.89082 -12.41389 33874 ft 449 kts 203°
2026-05-07 19:53 22.83162 -12.43551 33867 ft 449 kts 203°
2026-05-07 19:54 22.77289 -12.45692 33863 ft 448 kts 203°
2026-05-07 19:54 22.71276 -12.47572 33866 ft 450 kts 199°
2026-05-07 19:55 22.65170 -12.49189 33858 ft 451 kts 198°
2026-05-07 19:55 22.59076 -12.50792 33854 ft 451 kts 198°
2026-05-07 19:56 22.52988 -12.52423 33857 ft 450 kts 199°
2026-05-07 19:56 22.46943 -12.54059 33855 ft 450 kts 199°
2026-05-07 19:57 22.40856 -12.55710 33859 ft 450 kts 199°
2026-05-07 19:57 22.34783 -12.57355 33853 ft 450 kts 199°
2026-05-07 19:58 22.28700 -12.59001 33858 ft 450 kts 198°
2026-05-07 19:58 22.22660 -12.60633 33852 ft 450 kts 198°
2026-05-07 19:59 22.16581 -12.62274 33854 ft 450 kts 198°
2026-05-07 19:59 22.10504 -12.63914 33853 ft 450 kts 198°
2026-05-07 20:00 22.04425 -12.65552 33850 ft 450 kts 198°
2026-05-07 20:00 21.98354 -12.67187 33851 ft 450 kts 198°
2026-05-07 20:01 21.92268 -12.68824 33850 ft 451 kts 198°
2026-05-07 20:01 21.86178 -12.70461 33851 ft 451 kts 198°
2026-05-07 20:02 21.80093 -12.72095 33848 ft 451 kts 198°
2026-05-07 20:02 21.74000 -12.73730 33851 ft 450 kts 198°
2026-05-07 20:03 21.67924 -12.75359 33856 ft 450 kts 198°
2026-05-07 20:03 21.61878 -12.76978 33855 ft 450 kts 198°
2026-05-07 20:04 21.55795 -12.78606 33852 ft 450 kts 198°
2026-05-07 20:04 21.49712 -12.80232 33851 ft 449 kts 198°
2026-05-07 20:05 21.43685 -12.81842 33852 ft 449 kts 198°
2026-05-07 20:05 21.37622 -12.83461 33857 ft 449 kts 198°
2026-05-07 20:06 21.31570 -12.85075 33857 ft 448 kts 198°
2026-05-07 20:06 21.26537 -12.86416 33858 ft 447 kts 198°
2026-05-07 20:07 21.20495 -12.88025 33854 ft 447 kts 198°
2026-05-07 20:07 21.14456 -12.89631 33857 ft 446 kts 198°
2026-05-07 20:08 21.08445 -12.91229 33856 ft 445 kts 199°
2026-05-07 20:08 21.02435 -12.92825 33857 ft 444 kts 199°
2026-05-07 20:09 20.96480 -12.94406 33853 ft 443 kts 199°
2026-05-07 20:10 20.87514 -12.96783 33855 ft 442 kts 199°
2026-05-07 20:10 20.81547 -12.98363 33859 ft 441 kts 199°
2026-05-07 20:11 20.75590 -12.99940 33855 ft 440 kts 199°
2026-05-07 20:11 20.69636 -13.01515 33856 ft 440 kts 199°
2026-05-07 20:12 20.63697 -13.03084 33864 ft 439 kts 199°
2026-05-07 20:12 20.57799 -13.04642 33863 ft 439 kts 200°
2026-05-07 20:13 20.51930 -13.06314 33858 ft 433 kts 206°
2026-05-07 20:13 20.46664 -13.09217 33852 ft 422 kts 220°
2026-05-07 20:14 20.41965 -13.12935 33860 ft 421 kts 221°
2026-05-07 20:14 20.37264 -13.16678 33860 ft 421 kts 221°
2026-05-07 20:15 20.32554 -13.20399 33857 ft 421 kts 220°
2026-05-07 20:15 20.27834 -13.24108 33855 ft 421 kts 220°
2026-05-07 20:16 20.23139 -13.27788 33853 ft 422 kts 220°
2026-05-07 20:16 20.18408 -13.31494 33856 ft 421 kts 220°
2026-05-07 20:17 20.13692 -13.35185 33857 ft 421 kts 220°
2026-05-07 20:17 20.08964 -13.38882 33855 ft 420 kts 220°
2026-05-07 20:18 20.04250 -13.42567 33852 ft 420 kts 220°
2026-05-07 20:18 19.99543 -13.46243 33852 ft 420 kts 220°
2026-05-07 20:19 19.94830 -13.49921 33853 ft 420 kts 220°
2026-05-07 20:19 19.90125 -13.53590 33862 ft 419 kts 220°
2026-05-07 20:20 19.85452 -13.57231 33847 ft 419 kts 220°
2026-05-07 20:20 19.80742 -13.60898 33846 ft 419 kts 220°
2026-05-07 20:21 19.76033 -13.64562 33847 ft 419 kts 220°
2026-05-07 20:21 19.71333 -13.68216 33846 ft 418 kts 220°
2026-05-07 20:22 19.66636 -13.71865 33846 ft 418 kts 220°
2026-05-07 20:22 19.61982 -13.75477 33840 ft 417 kts 220°
2026-05-07 20:23 19.57301 -13.79109 33844 ft 416 kts 220°
2026-05-07 20:23 19.52623 -13.82734 33843 ft 415 kts 220°
2026-05-07 20:24 19.47953 -13.86352 33843 ft 415 kts 220°
2026-05-07 20:24 19.43299 -13.89954 33848 ft 414 kts 220°
2026-05-07 20:25 19.38676 -13.93530 33850 ft 413 kts 220°
2026-05-07 20:25 19.34033 -13.97119 33853 ft 413 kts 220°
2026-05-07 20:26 19.29391 -14.00704 33851 ft 413 kts 220°
2026-05-07 20:26 19.24742 -14.04292 33850 ft 413 kts 220°
2026-05-07 20:27 19.20109 -14.07865 33854 ft 412 kts 220°
2026-05-07 20:27 19.15470 -14.11440 33849 ft 412 kts 220°
2026-05-07 20:28 19.10832 -14.15012 33850 ft 412 kts 220°
2026-05-07 20:28 19.06205 -14.18574 33846 ft 411 kts 220°
2026-05-07 20:29 19.01581 -14.22129 33854 ft 411 kts 220°
2026-05-07 20:29 18.96964 -14.25678 33851 ft 410 kts 220°
2026-05-07 20:30 18.92369 -14.29207 33850 ft 410 kts 220°
2026-05-07 20:30 18.87751 -14.32751 33854 ft 411 kts 220°
2026-05-07 20:31 18.83119 -14.36304 33852 ft 411 kts 220°
2026-05-07 20:31 18.78475 -14.39863 33851 ft 412 kts 220°
2026-05-07 20:32 18.73827 -14.43422 33854 ft 413 kts 220°
2026-05-07 20:32 18.69203 -14.46961 33849 ft 413 kts 220°
2026-05-07 20:33 18.64537 -14.50530 33852 ft 414 kts 220°
2026-05-07 20:33 18.59882 -14.54087 33859 ft 413 kts 220°
2026-05-07 20:34 18.55217 -14.57649 33851 ft 413 kts 220°
2026-05-07 20:34 18.50558 -14.61206 33853 ft 413 kts 220°
2026-05-07 20:35 18.45899 -14.64759 33863 ft 414 kts 220°
2026-05-07 20:35 18.41230 -14.68317 33855 ft 414 kts 220°
2026-05-07 20:36 18.36562 -14.71873 33861 ft 414 kts 220°
2026-05-07 20:36 18.31918 -14.75408 33862 ft 414 kts 220°
2026-05-07 20:37 18.27235 -14.78969 33867 ft 415 kts 220°
2026-05-07 20:37 18.22554 -14.82527 33865 ft 415 kts 220°
2026-05-07 20:38 18.17878 -14.86079 33864 ft 415 kts 220°
2026-05-07 20:38 18.13199 -14.89631 33870 ft 414 kts 220°
2026-05-07 20:39 18.08521 -14.93179 33870 ft 414 kts 220°
2026-05-07 20:39 18.03851 -14.96719 33867 ft 414 kts 220°
2026-05-07 20:40 17.99213 -15.00234 33879 ft 413 kts 220°
2026-05-07 20:40 17.94548 -15.03766 33872 ft 413 kts 220°
2026-05-07 20:41 17.89889 -15.07292 33878 ft 412 kts 220°
2026-05-07 20:41 17.85228 -15.10816 33880 ft 412 kts 220°
2026-05-07 20:42 17.80571 -15.14333 33882 ft 412 kts 220°
2026-05-07 20:42 17.75940 -15.17825 33889 ft 412 kts 220°
2026-05-07 20:43 17.71283 -15.21336 33886 ft 412 kts 220°
2026-05-07 20:43 17.66629 -15.24843 33885 ft 411 kts 220°
2026-05-07 20:44 17.61981 -15.28344 33893 ft 411 kts 220°
2026-05-07 20:44 17.57339 -15.31843 33893 ft 411 kts 220°
2026-05-07 20:45 17.52704 -15.35337 33893 ft 410 kts 220°
2026-05-07 20:45 17.48064 -15.38832 33902 ft 410 kts 220°
2026-05-07 20:46 17.43462 -15.42296 33900 ft 410 kts 220°
2026-05-07 20:46 17.38834 -15.45778 33900 ft 409 kts 220°
2026-05-07 20:47 17.34214 -15.49251 33905 ft 409 kts 220°
2026-05-07 20:47 17.29578 -15.52734 33905 ft 409 kts 220°
2026-05-07 20:48 17.24955 -15.56206 33906 ft 409 kts 220°
2026-05-07 20:48 17.20340 -15.59670 33904 ft 408 kts 220°
2026-05-07 20:49 17.15757 -15.63108 33908 ft 408 kts 220°
2026-05-07 20:49 17.11143 -15.66566 33907 ft 408 kts 220°
2026-05-07 20:50 17.06525 -15.70026 33914 ft 408 kts 220°
2026-05-07 20:50 17.01916 -15.73481 33912 ft 407 kts 220°
2026-05-07 20:51 16.97335 -15.76913 33912 ft 407 kts 219°
2026-05-07 20:51 16.92700 -15.80384 33915 ft 407 kts 219°
2026-05-07 20:52 16.88117 -15.83814 33914 ft 408 kts 219°
2026-05-07 20:52 16.83504 -15.87265 33914 ft 408 kts 219°
2026-05-07 20:53 16.78889 -15.90714 33912 ft 408 kts 219°
2026-05-07 20:53 16.74267 -15.94167 33916 ft 409 kts 219°
2026-05-07 20:54 16.70417 -15.97042 33914 ft 409 kts 219°
2026-05-07 20:54 16.65779 -16.00503 33921 ft 410 kts 219°
2026-05-07 20:55 16.61132 -16.03970 33914 ft 411 kts 219°
2026-05-07 20:55 16.56478 -16.07439 33920 ft 411 kts 219°
2026-05-07 20:56 16.51814 -16.10913 33923 ft 412 kts 219°
2026-05-07 20:56 16.47152 -16.14378 33921 ft 412 kts 218°
2026-05-07 20:57 16.42480 -16.17847 33920 ft 412 kts 218°
2026-05-07 20:57 16.37802 -16.21321 33923 ft 412 kts 218°
2026-05-07 20:58 16.33135 -16.24784 33923 ft 412 kts 218°
2026-05-07 20:58 16.28483 -16.28235 33925 ft 412 kts 218°
2026-05-07 20:59 16.23810 -16.31699 33925 ft 412 kts 218°
2026-05-07 20:59 16.19128 -16.35168 33927 ft 413 kts 218°
2026-05-07 21:00 16.14442 -16.38638 33930 ft 413 kts 218°
2026-05-07 21:00 16.09786 -16.42084 33926 ft 413 kts 218°
2026-05-07 21:01 16.05094 -16.45554 33928 ft 414 kts 218°
2026-05-07 21:01 16.02768 -16.47334 33484 ft 418 kts 220°
2026-05-07 21:01 16.00484 -16.49189 33113 ft 413 kts 221°
2026-05-07 21:01 15.98254 -16.51042 32701 ft 407 kts 222°
2026-05-07 21:02 15.96059 -16.52874 32308 ft 401 kts 222°
2026-05-07 21:02 15.93888 -16.54680 31925 ft 399 kts 222°
2026-05-07 21:02 15.91746 -16.56454 31551 ft 398 kts 222°
2026-05-07 21:02 15.89583 -16.58238 31173 ft 396 kts 223°
2026-05-07 21:03 15.87428 -16.60010 30795 ft 395 kts 223°
2026-05-07 21:03 15.85272 -16.61778 30410 ft 394 kts 223°
2026-05-07 21:03 15.83117 -16.63544 30026 ft 393 kts 223°
2026-05-07 21:03 15.80968 -16.65303 29573 ft 393 kts 223°
2026-05-07 21:04 15.78829 -16.67053 29169 ft 391 kts 223°
2026-05-07 21:04 15.76693 -16.68800 28778 ft 389 kts 223°
2026-05-07 21:04 15.74568 -16.70538 28401 ft 388 kts 222°
2026-05-07 21:04 15.72447 -16.72272 28024 ft 387 kts 222°
2026-05-07 21:05 15.70334 -16.73999 27652 ft 387 kts 222°
2026-05-07 21:05 15.68215 -16.75731 27273 ft 387 kts 222°
2026-05-07 21:05 15.66101 -16.77457 26908 ft 387 kts 221°
2026-05-07 21:05 15.63985 -16.79187 26526 ft 388 kts 221°
2026-05-07 21:06 15.61889 -16.80898 26169 ft 389 kts 221°
2026-05-07 21:06 15.59765 -16.82632 25797 ft 390 kts 221°
2026-05-07 21:06 15.57627 -16.84376 25424 ft 391 kts 221°
2026-05-07 21:06 15.55484 -16.86125 25033 ft 393 kts 221°
2026-05-07 21:07 15.53330 -16.87881 24635 ft 394 kts 220°
2026-05-07 21:07 15.51176 -16.89637 24263 ft 395 kts 220°
2026-05-07 21:07 15.49015 -16.91398 23871 ft 395 kts 220°
2026-05-07 21:07 15.46857 -16.93156 23474 ft 393 kts 220°
2026-05-07 21:08 15.44715 -16.94900 23043 ft 389 kts 220°
2026-05-07 21:08 15.42604 -16.96618 22645 ft 384 kts 220°
2026-05-07 21:08 15.40518 -16.98316 22267 ft 379 kts 219°
2026-05-07 21:08 15.38447 -17.00001 21901 ft 375 kts 219°
2026-05-07 21:09 15.36406 -17.01662 21540 ft 371 kts 219°
2026-05-07 21:09 15.34385 -17.03306 21182 ft 370 kts 219°
2026-05-07 21:09 15.32349 -17.04963 20834 ft 372 kts 219°
2026-05-07 21:09 15.30311 -17.06621 20476 ft 373 kts 219°
2026-05-07 21:10 15.28294 -17.08260 20116 ft 371 kts 219°
2026-05-07 21:10 15.26272 -17.09903 19758 ft 368 kts 219°
2026-05-07 21:10 15.24263 -17.11536 19406 ft 366 kts 219°
2026-05-07 21:10 15.22260 -17.13163 19044 ft 365 kts 219°
2026-05-07 21:11 15.20264 -17.14784 18683 ft 363 kts 219°
2026-05-07 21:11 15.18281 -17.16395 18332 ft 362 kts 219°
2026-05-07 21:11 15.14338 -17.19595 17565 ft 358 kts 219°
2026-05-07 21:12 15.12385 -17.21180 17208 ft 355 kts 218°
2026-05-07 21:12 15.10446 -17.22753 16858 ft 353 kts 218°
2026-05-07 21:12 15.08520 -17.24315 16514 ft 350 kts 218°
2026-05-07 21:12 15.06608 -17.25866 16177 ft 348 kts 218°
2026-05-07 21:13 15.05815 -17.26509 16038 ft 348 kts 218°
2026-05-07 21:13 15.03913 -17.28051 15699 ft 346 kts 218°
2026-05-07 21:13 15.02019 -17.29585 15373 ft 345 kts 218°
2026-05-07 21:13 15.00102 -17.31063 15029 ft 343 kts 209°
2026-05-07 21:14 14.97875 -17.31896 14713 ft 341 kts 189°
2026-05-07 21:14 14.95511 -17.31937 14383 ft 341 kts 171°
2026-05-07 21:14 14.93195 -17.31440 14064 ft 340 kts 167°
2026-05-07 21:14 14.91665 -17.31052 13831 ft 340 kts 166°
2026-05-07 21:15 14.89330 -17.30431 13470 ft 339 kts 166°
2026-05-07 21:15 14.87055 -17.29824 13121 ft 338 kts 166°
2026-05-07 21:15 14.84805 -17.29231 12786 ft 336 kts 166°
2026-05-07 21:15 14.82540 -17.28643 12458 ft 335 kts 166°
2026-05-07 21:16 14.80274 -17.28061 12128 ft 334 kts 166°
2026-05-07 21:16 14.78017 -17.27486 11802 ft 333 kts 166°
2026-05-07 21:16 14.75764 -17.26915 11484 ft 334 kts 166°
2026-05-07 21:16 14.73521 -17.26348 11158 ft 330 kts 166°
2026-05-07 21:17 14.71299 -17.25787 10838 ft 326 kts 166°
2026-05-07 21:17 14.69100 -17.25233 10521 ft 323 kts 166°
2026-05-07 21:17 14.66931 -17.24686 10214 ft 319 kts 166°
2026-05-07 21:17 14.64787 -17.24145 9903 ft 313 kts 166°
2026-05-07 21:18 14.62729 -17.23627 9873 ft 293 kts 166°
2026-05-07 21:18 14.60802 -17.23141 9505 ft 285 kts 166°
2026-05-07 21:18 14.58879 -17.22657 9080 ft 282 kts 166°
2026-05-07 21:18 14.56991 -17.22182 8761 ft 274 kts 166°
2026-05-07 21:19 14.55227 -17.21738 8676 ft 254 kts 166°
2026-05-07 21:19 14.53548 -17.21316 8535 ft 236 kts 166°
2026-05-07 21:19 14.52014 -17.20930 8420 ft 218 kts 166°
2026-05-07 21:19 14.50614 -17.20578 8263 ft 203 kts 166°
2026-05-07 21:20 14.49211 -17.20225 7796 ft 206 kts 166°
2026-05-07 21:20 14.47822 -17.19875 7501 ft 204 kts 166°
2026-05-07 21:20 14.46463 -17.19533 7292 ft 198 kts 166°
2026-05-07 21:20 14.45133 -17.19198 7099 ft 196 kts 166°
2026-05-07 21:21 14.43793 -17.18861 6939 ft 200 kts 166°
2026-05-07 21:21 14.42416 -17.18515 6717 ft 206 kts 166°
2026-05-07 21:21 14.41030 -17.18166 6517 ft 203 kts 166°
2026-05-07 21:21 14.39668 -17.17825 6307 ft 200 kts 166°
2026-05-07 21:22 14.38391 -17.17294 6069 ft 198 kts 137°
2026-05-07 21:22 14.37709 -17.16138 5896 ft 186 kts 99°
2026-05-07 21:22 14.37642 -17.14825 5753 ft 184 kts 86°
2026-05-07 21:22 14.37655 -17.13491 5572 ft 188 kts 87°
2026-05-07 21:23 14.37667 -17.12133 5390 ft 190 kts 87°
2026-05-07 21:23 14.37678 -17.10773 5190 ft 188 kts 86°
2026-05-07 21:23 14.37931 -17.09497 4976 ft 178 kts 61°
2026-05-07 21:23 14.38580 -17.08456 4820 ft 170 kts 45°
2026-05-07 21:24 14.39473 -17.07688 4676 ft 170 kts 31°
2026-05-07 21:24 14.40604 -17.07347 4497 ft 172 kts
2026-05-07 21:24 14.41809 -17.07220 4298 ft 177 kts
2026-05-07 21:24 14.43034 -17.07110 4117 ft 176 kts
2026-05-07 21:25 14.44234 -17.07080 3934 ft 168 kts
2026-05-07 21:25 14.45381 -17.07081 3765 ft 162 kts 360°
2026-05-07 21:25 14.46512 -17.07089 3683 ft 166 kts 359°
2026-05-07 21:25 14.47703 -17.07100 3536 ft 173 kts 359°
2026-05-07 21:26 14.48901 -17.07111 3362 ft 170 kts 360°
2026-05-07 21:26 14.50084 -17.07122 3181 ft 169 kts 360°
2026-05-07 21:26 14.51245 -17.07133 3044 ft 163 kts 359°
2026-05-07 21:26 14.52376 -17.07144 2859 ft 162 kts 359°
2026-05-07 21:27 14.53471 -17.07155 2691 ft 154 kts
2026-05-07 21:27 14.54551 -17.07164 2453 ft 155 kts 359°
2026-05-07 21:27 14.55609 -17.07174 2255 ft 155 kts 359°
2026-05-07 21:27 14.56703 -17.07186 2042 ft 158 kts 359°
2026-05-07 21:28 14.57779 -17.07195 1836 ft 150 kts 359°
2026-05-07 21:28 14.58779 -17.07204 1636 ft 139 kts 360°
2026-05-07 21:28 14.59731 -17.07213 1456 ft 135 kts 359°
2026-05-07 21:28 14.60669 -17.07222 1275 ft 135 kts 360°
2026-05-07 21:29 14.61617 -17.07228 1088 ft 136 kts 360°
2026-05-07 21:29 14.62574 -17.07241 912 ft 137 kts 359°
2026-05-07 21:29 14.63527 -17.07252 725 ft 136 kts 360°
2026-05-07 21:29 14.64458 -17.07260 542 ft 135 kts 359°
2026-05-07 21:30 14.65396 -17.07271 369 ft 135 kts 359°
2026-05-07 21:30 14.66250 -17.07278 300 ft 109 kts
2026-05-07 21:30 14.66861 -17.07282 301 ft 66 kts 359°
2026-05-07 21:30 14.67187 -17.07287 302 ft 36 kts 359°
2026-05-07 21:31 14.67423 -17.07289 299 ft 32 kts
2026-05-07 21:31 14.67630 -17.07269 301 ft 29 kts 13°
2026-05-07 21:31 14.67801 -17.07191 299 ft 22 kts 29°
2026-05-07 21:31 14.67838 -17.07155 302 ft 0 kts 73°
2026-05-07 21:32 14.67838 -17.07137 301 ft 9 kts 95°
2026-05-07 21:32 14.67790 -17.07093 301 ft 9 kts 174°
2026-05-07 21:32 14.67706 -17.07096 301 ft 17 kts 180°
2026-05-07 21:33 14.67577 -17.07094 301 ft 18 kts 170°
2026-05-07 21:33 14.67534 -17.07028 301 ft 10 kts 90°
2026-05-07 21:33 14.67489 -17.06982 303 ft 10 kts 173°
2026-05-07 21:33 14.67419 -17.06981 304 ft 10 kts 181°
2026-05-07 21:34 14.67351 -17.06982 301 ft 10 kts 180°
2026-05-07 21:34 14.67284 -17.06982 302 ft 9 kts 180°
2026-05-07 21:34 14.67243 -17.06966 301 ft 5 kts 130°
2026-05-07 21:34 14.67220 -17.06935 301 ft 6 kts 124°
2026-05-07 21:35 14.67197 -17.06898 301 ft 6 kts 123°
2026-05-07 21:35 14.67182 -17.06875 301 ft 2 kts 123°
2026-05-07 21:35 14.67176 -17.06865 301 ft 1 kts 122°